Location: Bh?mavarapp?du
(16.7041°N, 80.6518°E)
Time: 03:46:29
(UTC+00:00)

Cosmos 1825 - Pass Details

Date: 21 April 2021
Orbit: 502 x 505 km, 82.5° (Epoch: 15 May)

Event Time Altitude Azimuth Distance (km) Brightness Sun altitude
Rises 14:30:46 0° 3° (N) 2,597 6.0 -22.9°
Reaches altitude 10° 14:32:56 10° 9° (N) 1,712 5.0 -23.4°
Enters shadow 14:34:00 18° 15° (NNE) 1,300 4.3 -23.6°
